Location: Treviso
(45.6669°N, 12.2430°E)
Time: 21:49:01
(UTC+01:00)

ISS - Pass Details

Date: 28 November 2023
Orbit: 415 x 417 km, 51.6° (Epoch: 06 December)

Event Time Altitude Azimuth Distance (km) Brightness Sun altitude
Rises 19:04:25 0° 298° (WNW) 2,363 0.9 -26.3°
Reaches altitude 10° 19:06:33 10° 303° (WNW) 1,498 -0.3 -26.7°
Enters shadow 19:07:33 18° 307° (NW) 1,106 -1.1 -26.9°
